Weather History for Columbia Owens, SC

Change the Weather History Date:

Wednesday, November 21, 2012

  Actual Average Record
Temperature  
Mean Temperature 53 °F 55 °F  
Max Temperature 67 °F 66 °F 80 °F (2011)
Min Temperature 39 °F 43 °F 30 °F (2000)
Degree Days  
Heating Degree Days 12 11  
Month to date heating degree days 218 174  
Since 1 July heating degree days 292 263  
Cooling Degree Days 0 0  
Month to date cooling degree days 1 11  
Year to date cooling degree days 2516 2253  
Growing Degree Days 2 (Base 50)    
Moisture  
Dew Point 40 °F    
Average Humidity 71    
Maximum Humidity 96    
Minimum Humidity 32    
Precipitation  
Precipitation 0.00 in 0.11 in 1.23 in (2006)
Month to date precipitation 1.33 2.03  
Year to date precipitation 39.46 41.24  
Sea Level Pressure  
Sea Level Pressure 30.13 in    
Wind  
Wind Speed 2 mph (ENE)    
Max Wind Speed 9 mph    
Max Gust Speed 16 mph    
Visibility 9 miles    
Events      
T = Trace of Precipitation, MM = Missing Value Source: NWS Daily Summary

Daily Weather History Graph

Daily Weather History Graph

Search for Another Location

Airport:

Trip Planner

Search our weather history database for the weather conditions in past years. The results will help you decide how hot, cold, wet, or windy it might be!

Date:

Astronomy

Nov. 21, 2012 Rise Set
Actual Time 7:02 AM EST 5:17 PM EST
Civil Twilight 6:35 AM EST 5:44 PM EST
Nautical Twilight 6:05 AM EST 6:14 PM EST
Astronomical Twilight 5:35 AM EST 6:44 PM EST
Moon 1:17 PM EST (11/21) 12:37 AM EST (11/21)
Length of Visible Light 11h 08m
Length of Day
10h 14m
First Quarter, 61% of the Moon is Illuminated
Nov 21
First Quarter
Nov 28
Full
Dec 6
Last Quarter
Dec 13
New
Dec 20
First Quarter

Hourly Weather History & Observations

Time (EST) Temp. Dew Point Humidity Pressure Visibility Wind Dir Wind Speed Gust Speed Precip Events Conditions
12:53 AM 44.1 °F 42.1 °F 93% 30.10 in 7.0 mi Calm Calm - N/A   Clear
1:53 AM 43.0 °F 41.0 °F 93% 30.10 in 8.0 mi Calm Calm - N/A   Clear
2:53 AM 42.1 °F 39.9 °F 92% 30.09 in 7.0 mi Calm Calm - N/A   Clear
3:53 AM 41.0 °F 39.9 °F 96% 30.10 in 8.0 mi Calm Calm - N/A   Clear
4:53 AM 41.0 °F 39.0 °F 93% 30.10 in 7.0 mi Calm Calm - N/A   Clear
5:53 AM 39.9 °F 37.9 °F 93% 30.12 in 8.0 mi Calm Calm - N/A   Clear
6:53 AM 39.9 °F 37.9 °F 93% 30.13 in 8.0 mi Calm Calm - N/A   Clear
7:53 AM 43.0 °F 41.0 °F 93% 30.15 in 7.0 mi Calm Calm - N/A   Clear
8:53 AM 48.0 °F 44.1 °F 86% 30.17 in 8.0 mi Calm Calm - N/A   Clear
9:53 AM 54.0 °F 45.0 °F 72% 30.18 in 10.0 mi Variable 3.5 mph - N/A   Clear
10:53 AM 57.9 °F 44.1 °F 60% 30.17 in 10.0 mi East 5.8 mph - N/A   Clear
11:53 AM 62.1 °F 39.0 °F 43% 30.15 in 10.0 mi Variable 4.6 mph - N/A   Clear
12:53 PM 64.0 °F 37.0 °F 37% 30.12 in 10.0 mi East 8.1 mph - N/A   Clear
1:53 PM 64.0 °F 36.0 °F 35% 30.11 in 10.0 mi ENE 10.4 mph - N/A   Clear
2:53 PM 66.9 °F 37.0 °F 33% 30.10 in 10.0 mi Calm Calm - N/A   Clear
3:53 PM 66.0 °F 36.0 °F 33% 30.10 in 10.0 mi Variable 5.8 mph - N/A   Clear
4:53 PM 64.0 °F 36.0 °F 35% 30.11 in 10.0 mi Calm Calm - N/A   Clear
5:53 PM 55.9 °F 39.0 °F 53% 30.12 in 10.0 mi Calm Calm - N/A   Clear
6:53 PM 51.1 °F 41.0 °F 68% 30.14 in 10.0 mi Calm Calm - N/A   Clear
7:53 PM 48.0 °F 41.0 °F 77% 30.15 in 10.0 mi Calm Calm - N/A   Clear
8:53 PM 46.9 °F 39.9 °F 77% 30.15 in 9.0 mi Calm Calm - N/A   Clear
9:53 PM 45.0 °F 39.9 °F 82% 30.17 in 10.0 mi Calm Calm - N/A   Clear
10:53 PM 44.1 °F 39.9 °F 85% 30.18 in 10.0 mi Calm Calm - N/A   Clear
11:53 PM 43.0 °F 39.0 °F 86% 30.19 in 8.0 mi Calm Calm - N/A   Clear